Flag for Austria Weather past 2 weeks in Gmünd, Lower Austria, Austria

Now
83 °F

Warm.


Feels Like: 85 °F
Forecast: 54 / 73 °F
Wind: 2 mph from Southwest

Location: Retz

Current Time: Jul 8, 2015 at 1:08:26 AM

Latest Report: Jul 7, 2015 at 11:00 PM


Visibility: N/A

Pressure: 29.70 "Hg

Humidity: 59%

Dew point: 67 °F

Location of GmündLocation

Historic Weather in Gmünd — Graph

°F

Gmünd temperature yesterday

Maximum temperature yesterday: 94 °F (at 5:00 PM)
Minimum temperature yesterday: 70 °F (at 5:00 AM)
Average temperature yesterday: 82 °F

Past Weeks' High & Low Weather Summary

 TemperatureHumidityPressure
High94 °F (Jul 5, 5:00 PM)99% (Jun 23, 3:00 AM)30.29 "Hg (Jun 23, 3:00 AM)
Low49 °F (Jun 24, 6:00 AM)21% (Jul 5, 4:00 PM)29.70 "Hg (Jul 7, 11:00 PM)
Average71 °F55%30.08 "Hg
* Reported Jun 22 11:00 PM — Jul 7 11:00 PM, Gmünd, Weather by CustomWeather, © 2015

Note: Actual official high and low records may vary slightly from our data, if they occured in-between our weather recording intervals... More about our weather records

Advertising

Gmünd weather history for previous 24 hours

 ConditionsComfort  
Time TempWeatherWind HumidityBarometerVisibility
11:00 PM
Tue, Jul 7
83 °FWarm.2 mph59%29.70 "HgN/A
10:00 PM85 °FWarm.1 mph55%29.73 "HgN/A
9:00 PM88 °FWarm.3 mph49%29.72 "HgN/A
8:00 PM91 °FPassing clouds.5 mph44%29.74 "Hg11 mi
7:00 PM93 °FHot.5 mph39%29.76 "HgN/A
6:00 PM94 °FExtremely hot.3 mph34%29.78 "HgN/A
5:00 PM94 °FExtremely hot.2 mph34%29.81 "HgN/A
4:00 PM94 °FExtremely hot.2 mph35%29.83 "HgN/A
3:00 PM93 °FExtremely hot.2 mph36%29.85 "HgN/A
2:00 PM89 °FSunny.1 mph34%29.89 "Hg14 mi
1:00 PM89 °FHot.2 mph35%29.91 "HgN/A
12:00 PM85 °FWarm.1 mph45%29.94 "HgN/A
11:00 AM83 °FWarm.2 mph50%29.96 "HgN/A
10:00 AM81 °FWarm.2 mph52%29.98 "HgN/A
9:00 AM77 °FMild.1 mph59%30.01 "HgN/A
8:00 AM75 °FSunny.2 mph61%30.02 "Hg12 mi
7:00 AM72 °FSunny.3 mph66%30.03 "Hg11 mi
6:00 AM70 °FMild.3 mph70%30.03 "HgN/A
5:00 AM70 °FMild.3 mph73%30.03 "HgN/A
4:00 AM71 °FMild.3 mph70%30.03 "HgN/A
3:00 AM71 °FMild.2 mph70%30.05 "HgN/A
2:00 AM74 °FMild.5 mph63%30.05 "HgN/A
1:00 AM75 °FMild.3 mph62%30.06 "HgN/A
Weather by CustomWeather, © 2015

See weather overviewHow to use our weather pages